Presure
205 212 193 201 205 185 201 187 181 180 198 173 172 152 152 140 190 161 134 177 164 132 161 186 184 192 196 203 201 200 206 199
203 196 200 176 181 137 128 135 188 165 180 173 172 158 173 181 188 116 121 191 194 124 121 202 186 196 203 199 204 212 206 205
196 193 198 201 209 209 119 194 179 194 192 191 187 173 183 184 191 139 133 178 140 203 198 166 183 101 210 209 206 203 194 201
197 197 196 196 192 184 118 144 178 169 178 185 187 192 188 180 167 186 195 198 187 152 181 179 204 164 208 191 158 208 213 205
188 186 133 185 184 180 129 146 157 175 171 181 184 189 193 196 176 189 153 150 205 204 203 202 199 195 222 216 224 225 244 225
177 174 169 179 178 180 176 177 171 164 182 186 195 200 197 195 192 194 200 203 201 204 204 195 216 232 221 220 217 255 271 262
166 170 177 174 175 172 160 174 174 178 174 184 175 195 199 201 204 207 198 200 205 224 209 143 220 233 253 247 249 264 272 267
180 178 178 171 177 175 173 180 182 181 191 201 199 194 201 198 203 215 211 212 212 216 216 224 229 260 260 264 269 283 280 278
181 174 172 179 170 175 182 183 189 197 199 195 195 200 203 210 213 215 217 213 210 221 206 233 247 267 268 282 287 281 287 294
170 174 172 176 158 179 180 192 193 196 201 197 195 203 197 213 211 210 210 213 220 227 229 256 274 288 301 304 297 305 306 309
175 184 183 182 179 182 197 195 194 195 196 197 206 177 211 209 209 206 218 218 234 236 253 289 310 316 316 318 317 324 325 325
123 178 180 188 197 193 123 193 142 129 125 185 133 210 211 205 204 206 228 234 233 253 290 321 325 331 293 293 297 388 401 424
179 175 203 198 189 190 120 183 126 124 207 177 181 213 213 211 205 231 250 254 268 322 336 331 323 286 431 426 415 402 393 383
201 197 188 179 121 175 192 201 194 202 207 220 212 220 211 209 241 237 274 292 336 341 321 290 437 420 410 416 416 415 415 408
132 188 144 190 175 191 195 202 206 212 217 211 220 215 208 248 251 276 324 323 335 284 450 425 436 426 420 413 410 408 408 413
191 188 188 193 196 197 209 204 205 215 216 214 227 242 254 257 306 321 340 315 383 437 427 427 416 405 395 389 384 380 375 377
189 191 199 198 197 211 212 133 218 224 222 227 259 263 275 335 313 340 277 374 429 408 417 401 391 383 374 370 365 361 357 358
194 195 199 206 208 216 217 221 224 229 248 265 301 311 325 318 337 282 444 423 406 404 387 379 370 366 362 357 352 346 342 343
200 201 202 214 213 224 224 231 251 309 312 313 328 316 321 310 285 436 417 403 391 377 372 365 361 359 360 358 355 354 354 355
Wind_Speed
36 36 43 37 37 44 38 40 44 46 45 52 52 54 56 47 59 56 36 64 59 36 57 73 68 74 78 79 79 78 81 74
39 42 41 47 46 56 46 51 47 51 50 54 59 61 62 62 63 37 39 73 75 40 41 83 78 82 85 85 87 87 84 84
41 43 41 41 40 40 47 43 45 49 52 54 58 58 65 68 70 49 49 71 49 83 83 65 78 40 88 90 90 84 76 82
35 37 36 37 38 42 48 49 49 53 56 59 62 68 72 71 66 77 82 83 79 55 73 71 89 77 94 80 69 95 96 91
34 36 46 43 44 47 47 45 53 58 60 66 71 75 78 80 69 78 58 64 90 90 92 91 90 85 101 97 100 103 107 99
42 45 50 49 51 54 58 62 64 66 74 76 78 79 79 82 83 86 89 89 90 93 96 90 99 100 102 101 101 108 112 107
53 52 52 55 57 61 64 68 71 75 77 80 71 80 83 86 90 91 90 92 92 97 97 50 101 110 118 111 109 115 115 110
47 51 54 59 61 64 68 72 76 78 80 80 81 84 87 89 93 92 95 98 102 106 108 113 115 129 125 122 122 119 117 117
50 53 59 61 63 68 73 78 81 82 84 86 88 90 92 95 96 99 104 103 104 112 101 121 130 130 127 127 122 120 116 116
56 59 64 67 58 72 78 84 84 86 88 91 93 96 97 100 102 103 105 110 117 120 119 134 137 134 129 120 122 117 117 114
61 66 71 75 75 80 83 85 87 90 92 95 97 86 101 101 104 104 116 118 128 127 133 138 127 122 120 117 118 115 112 108
47 71 77 81 79 81 51 86 61 59 59 90 66 102 104 105 107 108 126 130 128 132 139 121 117 114 110 111 110 84 78 69
72 75 74 77 80 83 55 83 63 60 102 90 92 107 110 111 109 130 135 134 136 126 115 115 115 116 76 71 70 69 67 66
70 74 80 74 57 82 94 97 98 104 108 113 108 115 111 113 132 128 140 139 122 115 115 116 75 72 70 64 59 56 53 53
52 79 64 87 83 94 98 102 105 110 113 109 118 116 112 134 133 140 124 123 115 115 74 73 63 59 56 53 51 48 46 46
78 83 87 91 95 99 107 106 109 117 116 114 128 132 131 129 130 121 117 113 92 73 69 60 57 54 52 50 49 48 47 45
84 87 92 96 97 109 111 61 118 123 123 127 133 129 130 118 119 115 111 97 71 70 60 59 56 55 51 48 46 45 45 44
90 93 99 107 110 115 117 121 124 128 133 131 132 128 116 117 113 111 72 69 67 61 61 59 58 58 54 52 50 48 46 45
99 103 106 115 114 121 125 129 134 130 128 127 117 114 115 110 110 72 68 65 61 61 60 60 59 60 57 56 54 52 51 48
Wind_Direction
292 300 297 303 302 300 300 298 295 297 296 295 292 295 297 297 301 302 277 297 293 285 296 299 298 301 302 303 301 300 298 291
299 303 306 301 302 299 302 307 293 296 292 289 290 291 294 298 303 286 285 299 299 271 269 305 304 305 302 300 298 296 295 291
303 304 304 302 306 306 298 300 297 297 295 298 298 299 299 301 302 296 297 299 296 303 304 295 298 286 298 296 295 293 286 285
310 306 310 308 306 304 297 309 296 295 297 299 301 306 307 304 301 305 303 302 302 289 297 297 300 292 297 290 288 289 288 287
310 311 307 313 310 305 297 306 306 302 302 309 309 308 306 304 299 301 303 297 305 304 301 298 297 295 295 293 292 291 292 286
309 310 310 310 308 309 309 309 307 307 310 309 308 305 303 302 301 302 301 299 298 296 295 296 293 297 292 290 289 294 291 287
306 308 309 309 310 308 307 309 310 309 308 306 301 305 305 304 303 301 300 299 299 297 296 295 294 300 302 297 296 294 290 288
304 305 306 305 308 308 307 306 305 306 304 306 308 309 306 306 304 302 301 302 302 304 303 303 304 304 300 298 295 290 287 286
304 302 303 306 304 305 307 307 308 311 311 309 308 308 306 305 307 310 309 304 301 304 303 304 305 301 297 296 292 290 288 285
301 306 304 304 308 311 312 310 311 311 308 309 309 308 307 309 308 306 305 305 305 304 304 306 303 299 297 294 293 290 287 285
304 305 305 307 310 310 309 310 311 311 309 308 307 308 308 305 304 304 307 306 306 305 306 303 299 297 295 292 291 290 287 285
313 308 310 308 307 308 310 309 310 313 314 307 312 307 306 305 306 305 308 306 305 306 304 301 299 298 299 298 295 292 289 286
309 310 304 304 305 308 316 308 308 310 308 307 309 309 308 307 305 308 307 306 305 303 302 300 298 300 298 296 294 291 289 287
305 305 305 310 311 308 308 309 308 310 309 311 309 311 307 306 307 306 306 305 306 305 303 302 303 301 300 298 295 292 287 284
312 307 310 308 309 308 307 309 311 310 311 309 311 309 307 308 307 306 306 306 307 305 307 305 304 303 302 299 298 295 292 285
307 306 307 308 308 308 311 310 310 310 311 310 310 307 307 307 307 307 309 308 308 309 308 308 306 303 302 300 298 297 295 294
305 307 309 309 309 310 308 313 310 310 310 310 307 307 308 310 308 312 308 310 310 309 309 308 306 305 303 299 296 294 294 293
308 310 311 311 310 309 310 311 311 309 306 306 307 307 309 310 313 310 312 311 310 309 309 308 307 305 303 301 297 294 291 289
312 311 311 309 310 312 311 310 308 307 308 308 310 310 311 312 312 313 312 311 310 309 309 308 306 304 300 297 294 291 288 286